Printer-friendly version

IAU Minor Planet Center

Minor Planet Center

MPEC 2000-P24: 1992 BA = 2000 PN3

The following Minor Planet Electronic Circular may be linked-to from your own Web pages, but must not otherwise be redistributed electronically.


Read MPEC 2000-P23 Read MPEC 2000-P25


M.P.E.C. 2000-P24                                Issued 2000 Aug. 4, 22:48 UT

     The Minor Planet Electronic Circulars contain information on unusual
         minor planets and routine data on comets.  They are published
   on behalf of Commission 20 of the International Astronomical Union by the
          Minor Planet Center, Smithsonian Astrophysical Observatory,
                          Cambridge, MA 02138, U.S.A.

             Prepared using the Tamkin Foundation Computer Network

             BMARSDEN@CFA.HARVARD.EDU or GWILLIAMS@CFA.HARVARD.EDU
          URL http://cfa-www.harvard.edu/iau/mpc.html  ISSN 1523-6714

                              1992 BA = 2000 PN3

Observations:
     K00P03N* C2000 08 02.29566 20 55 42.68 -09 13 19.5          18.4        704
     K00P03N  C2000 08 02.30995 20 55 41.83 -09 13 52.4          18.4        704
     K00P03N  C2000 08 02.32445 20 55 40.94 -09 14 26.0          19.2        704
     K00P03N  C2000 08 02.33872 20 55 39.97 -09 14 59.6          18.7        704
     K00P03N  C2000 08 02.35304 20 55 39.10 -09 15 33.6          18.2        704
     K00P03N  C2000 08 04.21849 20 54 04.31 -10 28 47.8          17.6        704
     K00P03N  C2000 08 04.23407 20 54 03.38 -10 29 25.0          17.9        704
     K00P03N  C2000 08 04.26400 20 54 01.54 -10 30 35.6          17.6        704
     K00P03N  C2000 08 04.27897 20 54 00.63 -10 31 11.4          17.5        704

Observer details:
704 Lincoln Laboratory ETS, New Mexico.  Observers M. Blythe, F. Shelly,
    M. Bezpalko, M. Elowitz, R. Huber, L. Manguso.  Measurers J. Stuart,
    R. Sayer, J. B. Evans, H. Viggh.  1.0-m f/2.15 reflector + CCD.

Orbital elements:
1992 BA = 2000 PN3
Epoch 2000 Sept. 13.0 TT = JDT 2451800.5                Williams
M  83.13355              (2000.0)            P               Q
n   0.63422688     Peri.  107.12733     -0.37393204     +0.92012037
a   1.3416512      Node   140.28155     -0.90505162     -0.33458908
e   0.0677945      Incl.   10.49703     -0.20262376     -0.20354030
P   1.55           H   20.7           G   0.15           U   5
Residuals in seconds of arc
920127 691  0.4+  0.3-    920129 691  0.4-  0.6+    000802 704  0.5-  0.9-
920127 691  0.2+  0.2-    920129 691  0.9-  0.0     000802 704  0.2+  0.2-
920128 691  0.2-  1.2-    920130 691  0.9-  0.2-    000802 704  0.4+  0.3+
920128 691  0.1-  0.1+    920130 691  0.4-  0.0     000802 704  0.8-  0.1+
920128 691  0.4-  0.3+    920205 691  0.3-  0.2+    000802 704  0.5-  0.3-
920128 691  0.6+  0.3-    920205 691  0.2-  0.5-    000804 704  0.1-  0.4+
920128 691  1.8+  0.8+    920210 691  0.4+  0.2-    000804 704  0.2+  0.2+
920128 691  0.5+  0.1-    920210 691  0.1-  0.5+    000804 704  0.4+  0.4+
920129 691  0.2-  0.3+    920210 691  0.0   0.0     000804 704  0.7+  0.0

Ephemeris:
1992 BA                  a,e,i = 1.34, 0.07, 10                  q = 1.2507
Date    TT    R. A. (2000) Decl.     Delta      r     Elong.  Phase     V
2000 08 04    20 54.25   -10 19.8    0.285    1.298   173.1     5.4    19.0
2000 08 09    20 50.06   -13 35.1    0.290    1.302   173.2     5.3    19.0
2000 08 14    20 46.34   -16 42.4    0.299    1.307   167.9     9.3    19.3
2000 08 19    20 43.39   -19 34.7    0.312    1.312   161.7    14.0    19.6
2000 08 24    20 41.45   -22 07.6    0.328    1.317   155.6    18.5    19.8
2000 08 29    20 40.72   -24 18.5    0.348    1.322   149.8    22.6    20.1
2000 09 03    20 41.33   -26 06.8    0.370    1.327   144.4    26.3    20.3

2000 09 13    20 46.60   -28 39.1    0.421    1.337   134.9    32.2    20.8
2000 09 23    20 56.65   -29 57.7    0.480    1.347   126.9    36.6    21.2
2000 10 03    21 10.58   -30 16.8    0.544    1.357   120.0    39.7    21.6
2000 10 13    21 27.48   -29 48.5    0.613    1.367   114.0    41.8    21.9
2000 10 23    21 46.38   -28 42.6    0.685    1.376   108.6    43.3    22.2

Gareth V. Williams           (C) Copyright 2000 MPC           M.P.E.C. 2000-P24

Read MPEC 2000-P23 Read MPEC 2000-P25


Our Web policy. Index to the CBAT/MPC/ICQ pages.


Valid HTML 4.01!